This is the latest recevied weather packets stored in our database for station/object R1ZAAG-14. If no packets are shown the sender has not sent any weather packets the latest 10 day(s).
| Time | Temp. | Humidity | Pressure | Rain* | Wind** | Luminosity | Snow |
|---|---|---|---|---|---|---|---|
| 1778025374 | 1.67° C | 72% | 1000.8 hPa | - | - | - | - |
| 1778024473 | 1.67° C | 73% | 1000.6 hPa | - | - | - | - |
| 1778023573 | 1.11° C | 74% | 1000.7 hPa | - | - | - | - |
| 1778022671 | 1.11° C | 78% | 1000.6 hPa | - | - | - | - |
| 1778021779 | 1.11° C | 82% | 1000.6 hPa | - | - | - | - |
| 1778021770 | 1.11° C | 82% | 1000.6 hPa | - | - | - | - |
| 1778020883 | 1.11° C | 87% | 1000.6 hPa | - | - | - | - |
| 1778020870 | 1.11° C | 87% | 1000.6 hPa | - | - | - | - |
| 1778019987 | 1.67° C | 96% | 1000.4 hPa | - | - | - | - |
| 1778019087 | 1.67° C | 98% | 1000.3 hPa | - | - | - | - |
| 1778018182 | 1.67° C | 98% | 1000.3 hPa | - | - | - | - |
| 1778017281 | 1.67° C | 98% | 1000.2 hPa | - | - | - | - |
| 1778016380 | 1.67° C | 100% | 1000.1 hPa | - | - | - | - |
| 1778015479 | 1.11° C | 100% | 1000.1 hPa | - | - | - | - |
| 1778014578 | 1.11° C | 100% | 999.9 hPa | - | - | - | - |
| 1778013678 | 1.67° C | 100% | 999.9 hPa | - | - | - | - |
| 1778012777 | 1.11° C | 100% | 999.9 hPa | - | - | - | - |
| 1778011877 | 1.11° C | 100% | 999.8 hPa | - | - | - | - |
| 1778010976 | 1.11° C | 100% | 999.8 hPa | - | - | - | - |
| 1778010075 | 1.67° C | 88% | 999.7 hPa | - | - | - | - |
| 1778009175 | 1.67° C | 70% | 999.6 hPa | - | - | - | - |
| 1778008274 | 1.67° C | 72% | 999.6 hPa | - | - | - | - |
| 1778007373 | 1.67° C | 72% | 999.5 hPa | - | - | - | - |
| 1778005573 | 1.67° C | 76% | 999.2 hPa | - | - | - | - |
| 1778004673 | 1.67° C | 76% | 999.2 hPa | - | - | - | - |
* Rain since midnight (hover to see other rain measurements)
** Current wind speed in m/s (hover to see current wind gust speed)